Location: Ostrava
(49.8330°N, 18.2830°E)
Time: 10:41:10
(UTC+02:00)

ISS - Visible Passes

Search period start: 12 September 2024 00:00
Search period end: 22 September 2024 00:00
Orbit: 415 x 425 km, 51.6° (Epoch: 11 September)

Date Brightness Start Highest point End Pass type
(mag) Time Alt. Az. Time Alt. Az. Time Alt. Az.
12 Sep -3.1 20:39:45 10° SW 20:42:50 34° SSE 20:42:53 34° SE visible
13 Sep -2.5 19:52:44 10° SSW 19:55:30 24° SE 19:57:44 13° E visible
13 Sep -2.4 21:28:39 10° WSW 21:30:44 35° WSW 21:30:44 35° WSW visible
14 Sep -3.8 20:41:10 10° WSW 20:44:31 68° SSE 20:45:20 46° E visible
14 Sep -0.6 22:18:02 10° W 22:18:19 12° W 22:18:19 12° W visible
15 Sep -3.5 19:53:43 10° SW 19:56:58 49° SSE 19:59:47 13° E visible
15 Sep -2.5 21:30:24 10° W 21:32:44 40° WNW 21:32:44 40° WNW visible
16 Sep -3.7 20:42:42 10° W 20:46:04 76° NNW 20:47:00 44° ENE visible
16 Sep -0.5 22:19:41 10° WNW 22:19:57 12° WNW 22:19:57 12° WNW visible
17 Sep -3.8 19:54:59 10° WSW 19:58:20 88° SSE 20:01:10 14° ENE visible
17 Sep -2.2 21:31:56 10° W 21:34:06 35° WNW 21:34:06 35° WNW visible
18 Sep -3.5 20:44:08 10° W 20:47:28 62° N 20:48:08 48° NE visible
18 Sep -0.3 22:21:01 10° WNW 22:21:04 10° WNW 22:21:04 10° WNW visible
19 Sep -3.5 19:56:15 10° W 19:59:36 66° N 20:02:06 17° ENE visible
19 Sep -1.8 21:33:11 10° WNW 21:35:01 30° WNW 21:35:01 30° WNW visible
20 Sep -3.7 20:45:18 10° WNW 20:48:39 65° N 20:48:54 62° NE visible
21 Sep -3.5 19:57:19 10° W 20:00:39 61° N 20:02:44 21° ENE visible
21 Sep -1.5 21:34:10 10° WNW 21:35:39 24° WNW 21:35:39 24° WNW visible
